| time (UTC) | temp F | wind direction | speed MPH | gust MPH | rain 1hr in | rain 24hr in | rain mn in | humidity % | barometer mb |
| 20260902125312 | 72 | 195 | 5.0 | 10.0 | 0.00 | 0.00 | 0.00 | 64 | 1019.1 |
| 20260902124802 | 72 | 166 | 4.0 | 9.0 | 0.00 | 0.00 | 0.00 | 67 | 1019.0 |
| 20260902124253 | 71 | 139 | 4.0 | 8.0 | 0.00 | 0.00 | 0.00 | 65 | 1019.1 |
| 20260902124140 | 71 | 317 | 1.0 | 7.0 | 0.00 | 0.00 | 0.00 | 68 | 1019.1 |
| 20260902123839 | 71 | 218 | 2.0 | 7.0 | 0.00 | 0.00 | 0.00 | 65 | 1019.1 |
| 20260902122829 | 71 | 20 | 1.0 | 5.0 | 0.00 | 0.00 | 0.00 | 68 | 1019.1 |
| 20260902122323 | 71 | 220 | 1.0 | 5.0 | 0.00 | 0.00 | 0.00 | 67 | 1019.2 |
| 20260902121813 | 71 | 59 | 2.0 | 7.0 | 0.00 | 0.00 | 0.00 | 67 | 1019.2 |
| 20260902121305 | 71 | 253 | 3.0 | 10.0 | 0.00 | 0.00 | 0.00 | 68 | 1019.4 |
| 20260902120801 | 71 | 194 | 4.0 | 12.0 | 0.00 | 0.00 | 0.00 | 68 | 1019.4 |
| 20260902120252 | 71 | 197 | 5.0 | 12.0 | 0.00 | 0.00 | 0.00 | 69 | 1019.4 |
| 20260902115746 | 71 | 260 | 5.0 | 10.0 | 0.00 | 0.00 | 0.00 | 65 | 1019.5 |
| 20260902115237 | 71 | 235 | 5.0 | 10.0 | 0.00 | 0.00 | 0.00 | 68 | 1019.6 |
| 20260902114728 | 70 | 250 | 5.0 | 10.0 | 0.00 | 0.00 | 0.00 | 69 | 1019.7 |
| 20260902114320 | 70 | 212 | 5.0 | 10.0 | 0.00 | 0.00 | 0.00 | 69 | 1019.7 |
| 20260902113812 | 70 | 218 | 4.0 | 10.0 | 0.00 | 0.00 | 0.00 | 69 | 1019.7 |
| 20260902113659 | 70 | 189 | 4.0 | 10.0 | 0.00 | 0.00 | 0.00 | 68 | 1019.7 |
| 20260902112806 | 70 | 236 | 3.0 | 10.0 | 0.00 | 0.00 | 0.00 | 69 | 1019.6 |
| 20260902112247 | 70 | 324 | 3.0 | 12.0 | 0.00 | 0.00 | 0.00 | 70 | 1019.6 |
| 20260902112140 | 70 | 257 | 4.0 | 12.0 | 0.00 | 0.00 | 0.00 | 69 | 1019.5 |
| 20260902111232 | 70 | 201 | 3.0 | 10.0 | 0.00 | 0.00 | 0.00 | 70 | 1019.5 |
| 20260902110739 | 70 | 172 | 2.0 | 8.0 | 0.00 | 0.00 | 0.00 | 71 | 1019.6 |
| 20260902110319 | 70 | 200 | 2.0 | 8.0 | 0.00 | 0.00 | 0.00 | 69 | 1019.6 |
| 20260902105809 | 70 | 235 | 2.0 | 6.0 | 0.00 | 0.00 | 0.00 | 70 | 1019.6 |
| 20260902105300 | 70 | 279 | 2.0 | 8.0 | 0.00 | 0.00 | 0.00 | 71 | 1019.6 |
| 20260902104751 | 70 | 230 | 3.0 | 8.0 | 0.00 | 0.00 | 0.00 | 72 | 1019.6 |
| 20260902104246 | 70 | 222 | 2.0 | 7.0 | 0.00 | 0.00 | 0.00 | 70 | 1019.6 |
| 20260902103737 | 70 | 305 | 3.0 | 9.0 | 0.00 | 0.00 | 0.00 | 71 | 1019.6 |
| 20260902103226 | 70 | 215 | 5.0 | 12.0 | 0.00 | 0.00 | 0.00 | 72 | 1019.6 |
| 20260902102717 | 70 | 264 | 5.0 | 12.0 | 0.00 | 0.00 | 0.00 | 72 | 1019.6 |
| 20260902102308 | 70 | 190 | 5.0 | 12.0 | 0.00 | 0.00 | 0.00 | 72 | 1019.6 |
| 20260902101759 | 69 | 235 | 6.0 | 12.0 | 0.00 | 0.00 | 0.00 | 74 | 1019.6 |
| 20260902101249 | 69 | 170 | 5.0 | 12.0 | 0.00 | 0.00 | 0.00 | 75 | 1019.5 |
| 20260902100741 | 69 | 188 | 5.0 | 10.0 | 0.00 | 0.00 | 0.00 | 75 | 1019.7 |
| 20260902100232 | 68 | 174 | 5.0 | 9.0 | 0.00 | 0.00 | 0.00 | 74 | 1019.7 |
| 20260902100121 | 69 | 260 | 4.0 | 9.0 | 0.00 | 0.00 | 0.00 | 76 | 1019.7 |
| 20260902095213 | 68 | 224 | 4.0 | 8.0 | 0.00 | 0.00 | 0.00 | 77 | 1019.7 |
| 20260902094803 | 68 | 206 | 4.0 | 8.0 | 0.00 | 0.00 | 0.00 | 77 | 1019.7 |
| 20260902094258 | 67 | 185 | 4.0 | 8.0 | 0.00 | 0.00 | 0.00 | 78 | 1019.6 |
| 20260902093749 | 67 | 182 | 4.0 | 9.0 | 0.00 | 0.00 | 0.00 | 78 | 1019.7 |
| 20260902093243 | 67 | 192 | 5.0 | 9.0 | 0.00 | 0.00 | 0.00 | 78 | 1019.7 |
| 20260902092734 | 67 | 181 | 4.0 | 9.0 | 0.00 | 0.00 | 0.00 | 78 | 1019.7 |
| 20260902092238 | 66 | 235 | 4.0 | 9.0 | 0.00 | 0.00 | 0.00 | 80 | 1019.7 |
| 20260902091716 | 66 | 158 | 5.0 | 17.0 | 0.00 | 0.00 | 0.00 | 79 | 1019.7 |
| 20260902091209 | 66 | 256 | 5.0 | 17.0 | 0.00 | 0.00 | 0.00 | 79 | 1019.8 |
| 20260902091001 | 66 | 255 | 4.0 | 12.0 | 0.00 | 0.00 | 0.00 | 79 | 1019.8 |
| 20260902090249 | 66 | 238 | 5.0 | 11.0 | 0.00 | 0.00 | 0.00 | 80 | 1019.7 |
| 20260902085739 | 66 | 213 | 5.0 | 11.0 | 0.00 | 0.00 | 0.00 | 79 | 1019.6 |
| 20260902085230 | 66 | 220 | 4.0 | 10.0 | 0.00 | 0.00 | 0.00 | 80 | 1019.6 |
| 20260902084721 | 66 | 227 | 4.0 | 10.0 | 0.00 | 0.00 | 0.00 | 80 | 1019.7 |
| 20260902084213 | 66 | 202 | 4.0 | 10.0 | 0.00 | 0.00 | 0.00 | 80 | 1019.6 |
| 20260902084103 | 65 | 224 | 3.0 | 8.0 | 0.00 | 0.00 | 0.00 | 80 | 1019.6 |
| 20260902083157 | 65 | 189 | 3.0 | 8.0 | 0.00 | 0.02 | 0.00 | 81 | 1019.6 |
| 20260902082758 | 65 | 181 | 3.0 | 9.0 | 0.00 | 0.03 | 0.00 | 82 | 1019.6 |
| 20260902082238 | 65 | 270 | 3.0 | 9.0 | 0.00 | 0.03 | 0.00 | 82 | 1019.5 |
| 20260902081743 | 64 | 162 | 3.0 | 7.0 | 0.00 | 0.03 | 0.00 | 82 | 1019.4 |
| 20260902081225 | 64 | 254 | 3.0 | 9.0 | 0.00 | 0.03 | 0.00 | 83 | 1019.4 |
| 20260902080716 | 64 | 185 | 4.0 | 9.0 | 0.00 | 0.03 | 0.00 | 83 | 1019.4 |
| 20260902080207 | 64 | 222 | 3.0 | 8.0 | 0.00 | 0.03 | 0.00 | 83 | 1019.4 |
| 20260902075701 | 63 | 284 | 2.0 | 6.0 | 0.00 | 0.03 | 0.00 | 83 | 1019.3 |
| 20260902075156 | 63 | 225 | 2.0 | 6.0 | 0.00 | 0.03 | 0.00 | 84 | 1019.3 |
| 20260902074746 | 63 | 210 | 2.0 | 6.0 | 0.00 | 0.03 | 0.00 | 84 | 1019.3 |
| 20260902074237 | 62 | 240 | 1.0 | 6.0 | 0.00 | 0.03 | 0.00 | 85 | 1019.2 |
| 20260902073732 | 62 | 188 | 0.0 | 5.0 | 0.00 | 0.03 | 0.00 | 86 | 1019.3 |
| 20260902073224 | 61 | 210 | 0.0 | 1.0 | 0.00 | 0.03 | 0.00 | 87 | 1019.2 |
| 20260902072717 | 61 | 210 | 0.0 | 1.0 | 0.00 | 0.03 | 0.00 | 87 | 1019.2 |
| 20260902072210 | 60 | 212 | 0.0 | 1.0 | 0.00 | 0.03 | 0.00 | 88 | 1019.1 |
| 20260902071704 | 60 | 179 | 0.0 | 1.0 | 0.00 | 0.03 | 0.00 | 89 | 1019.1 |
| 20260902071552 | 59 | 203 | 0.0 | 1.0 | 0.00 | 0.03 | 0.00 | 89 | 1019.1 |
| 20260902070651 | 59 | 285 | 0.0 | 1.0 | 0.00 | 0.03 | 0.00 | 90 | 1019.1 |
| 20260902070239 | 58 | 202 | 0.0 | 1.0 | 0.00 | 0.03 | 0.00 | 91 | 1019.1 |
| 20260902065731 | 58 | 166 | 0.0 | 1.0 | 0.00 | 0.03 | 0.00 | 91 | 1019.3 |
| 20260902065416 | 57 | 230 | 0.0 | 1.0 | 0.00 | 0.03 | 0.00 | 92 | 1019.2 |
| 20260902065217 | 57 | 191 | 0.0 | 1.0 | 0.00 | 0.03 | 0.00 | 91 | 1019.3 |
| 20260902065009 | 57 | 216 | 0.0 | 1.0 | 0.00 | 0.03 | 0.00 | 91 | 1019.2 |
| 20260902063658 | 57 | 190 | 0.0 | 1.0 | 0.00 | 0.03 | 0.00 | 92 | 1019.3 |
| 20260902063151 | 57 | 195 | 0.0 | 1.0 | 0.00 | 0.03 | 0.00 | 93 | 1019.3 |
| 20260902062739 | 56 | 199 | 0.0 | 0.0 | 0.00 | 0.03 | 0.00 | 93 | 1019.3 |
| 20260902061721 | 56 | 204 | 0.0 | 1.0 | 0.00 | 0.03 | 0.00 | 94 | 1019.3 |
| 20260902061512 | 56 | 183 | 0.0 | 0.0 | 0.00 | 0.03 | 0.00 | 94 | 1019.2 |
| 20260902060703 | 55 | 197 | 0.0 | 0.0 | 0.00 | 0.03 | 0.00 | 94 | 1019.1 |
| 20260902060155 | 55 | 206 | 0.0 | 0.0 | 0.00 | 0.03 | 0.00 | 94 | 1019.0 |
| 20260902055649 | 55 | 189 | 0.0 | 0.0 | 0.00 | 0.03 | 0.00 | 94 | 1019.0 |
| 20260902055144 | 55 | 188 | 0.0 | 0.0 | 0.00 | 0.03 | 0.00 | 94 | 1018.9 |
| 20260902054735 | 55 | 195 | 0.0 | 0.0 | 0.00 | 0.03 | 0.00 | 94 | 1018.9 |
| 20260902054225 | 55 | 192 | 0.0 | 0.0 | 0.00 | 0.03 | 0.00 | 93 | 1018.9 |
| 20260902053716 | 55 | 191 | 0.0 | 0.0 | 0.00 | 0.03 | 0.00 | 93 | 1019.0 |
| 20260902053210 | 55 | 199 | 0.0 | 0.0 | 0.00 | 0.03 | 0.00 | 93 | 1018.9 |
| 20260902053006 | 55 | 176 | 0.0 | 0.0 | 0.00 | 0.03 | 0.00 | 93 | 1018.9 |
| 20260902052456 | 55 | 177 | 0.0 | 0.0 | 0.00 | 0.03 | 0.00 | 93 | 1018.8 |
| 20260902051652 | 55 | 201 | 0.0 | 0.0 | 0.00 | 0.03 | 0.00 | 93 | 1018.8 |
| 20260902051147 | 55 | 201 | 0.0 | 0.0 | 0.00 | 0.03 | 0.00 | 93 | 1018.8 |
| 20260902050640 | 55 | 201 | 0.0 | 0.0 | 0.00 | 0.03 | 0.00 | 93 | 1018.8 |
| 20260902050134 | 55 | 201 | 0.0 | 0.0 | 0.00 | 0.03 | 0.00 | 93 | 1018.8 |
| 20260902045628 | 55 | 201 | 0.0 | 0.0 | 0.00 | 0.03 | 0.00 | 93 | 1018.8 |
| 20260902045221 | 55 | 201 | 0.0 | 0.0 | 0.00 | 0.03 | 0.00 | 93 | 1018.8 |
| 20260902044716 | 55 | 201 | 0.0 | 0.0 | 0.00 | 0.03 | 0.00 | 93 | 1018.8 |
| 20260902044212 | 55 | 201 | 0.0 | 0.0 | 0.00 | 0.03 | 0.00 | 93 | 1018.8 |
| 20260902043714 | 55 | 201 | 0.0 | 0.0 | 0.00 | 0.03 | 0.00 | 93 | 1018.8 |
| 20260902043456 | 55 | 201 | 0.0 | 0.0 | 0.00 | 0.03 | 0.00 | 93 | 1018.8 |
| 20260902042647 | 55 | 201 | 0.0 | 0.0 | 0.00 | 0.03 | 0.00 | 93 | 1018.8 |
| 20260902042142 | 55 | 201 | 0.0 | 0.0 | 0.00 | 0.03 | 0.00 | 93 | 1018.8 |
| 20260902041637 | 55 | 201 | 0.0 | 0.0 | 0.00 | 0.03 | 0.00 | 93 | 1018.8 |
| 20260902041131 | 55 | 201 | 0.0 | 0.0 | 0.00 | 0.03 | 0.00 | 92 | 1018.8 |
| 20260902040621 | 55 | 201 | 0.0 | 0.0 | 0.00 | 0.03 | 0.00 | 92 | 1018.8 |
| 20260902040214 | 56 | 201 | 0.0 | 0.0 | 0.00 | 0.03 | 0.00 | 92 | 1018.9 |
| 20260902040009 | 56 | 214 | 0.0 | 0.0 | 0.00 | 0.03 | 0.00 | 93 | 1018.8 |
| 20260902035159 | 56 | 210 | 0.0 | 0.0 | 0.00 | 0.03 | 0.00 | 93 | 1018.8 |
| 20260902034955 | 56 | 210 | 0.0 | 0.0 | 0.00 | 0.03 | 0.00 | 93 | 1018.9 |
| 20260902034149 | 56 | 206 | 0.0 | 0.0 | 0.00 | 0.03 | 0.00 | 93 | 1018.9 |
| 20260902033643 | 56 | 310 | 0.0 | 0.0 | 0.00 | 0.03 | 0.00 | 93 | 1018.9 |
| 20260902033135 | 56 | 310 | 0.0 | 0.0 | 0.00 | 0.03 | 0.00 | 93 | 1018.8 |
| 20260902032630 | 56 | 310 | 0.0 | 0.0 | 0.00 | 0.03 | 0.00 | 93 | 1018.9 |
| 20260902032425 | 56 | 310 | 0.0 | 0.0 | 0.00 | 0.03 | 0.00 | 93 | 1018.9 |
| 20260902031918 | 56 | 310 | 0.0 | 0.0 | 0.00 | 0.03 | 0.00 | 93 | 1018.9 |
| 20260902031111 | 56 | 310 | 0.0 | 0.0 | 0.00 | 0.03 | 0.00 | 93 | 1018.9 |
| 20260902030605 | 56 | 310 | 0.0 | 0.0 | 0.00 | 0.03 | 0.00 | 93 | 1019.0 |
| 20260902030113 | 56 | 310 | 0.0 | 0.0 | 0.00 | 0.03 | 0.00 | 93 | 1019.0 |
| 20260902025850 | 56 | 310 | 0.0 | 0.0 | 0.00 | 0.03 | 0.00 | 93 | 1019.0 |
| 20260902025650 | 56 | 310 | 0.0 | 0.0 | 0.00 | 0.03 | 0.00 | 93 | 1018.9 |
| 20260902024641 | 56 | 310 | 0.0 | 0.0 | 0.00 | 0.03 | 0.00 | 93 | 1018.9 |
| 20260902024135 | 56 | 310 | 0.0 | 0.0 | 0.00 | 0.03 | 0.00 | 92 | 1019.0 |
| 20260902023627 | 56 | 310 | 0.0 | 0.0 | 0.00 | 0.03 | 0.00 | 93 | 1019.0 |
| 20260902023119 | 56 | 310 | 0.0 | 0.0 | 0.00 | 0.03 | 0.00 | 93 | 1019.0 |
| 20260902022615 | 56 | 310 | 0.0 | 0.0 | 0.00 | 0.03 | 0.00 | 93 | 1019.1 |
| 20260902022107 | 56 | 310 | 0.0 | 0.0 | 0.00 | 0.03 | 0.00 | 93 | 1019.0 |
| 20260902021603 | 56 | 310 | 0.0 | 0.0 | 0.00 | 0.03 | 0.00 | 93 | 1019.0 |
| 20260902021055 | 56 | 310 | 0.0 | 0.0 | 0.00 | 0.03 | 0.00 | 93 | 1019.0 |
| 20260902020552 | 56 | 310 | 0.0 | 0.0 | 0.00 | 0.03 | 0.00 | 93 | 1019.1 |
| 20260902020449 | 56 | 310 | 0.0 | 0.0 | 0.00 | 0.03 | 0.00 | 92 | 1019.0 |
| 20260902015630 | 56 | 310 | 0.0 | 0.0 | 0.00 | 0.03 | 0.00 | 92 | 1019.0 |
| 20260902015123 | 56 | 310 | 0.0 | 0.0 | 0.00 | 0.03 | 0.00 | 92 | 1019.0 |
| 20260902014615 | 57 | 310 | 0.0 | 0.0 | 0.00 | 0.03 | 0.00 | 93 | 1019.1 |
| 20260902014108 | 57 | 310 | 0.0 | 0.0 | 0.00 | 0.03 | 0.00 | 92 | 1019.0 |
| 20260902013602 | 57 | 310 | 0.0 | 0.0 | 0.00 | 0.03 | 0.00 | 93 | 1019.0 |
| 20260902013054 | 57 | 310 | 0.0 | 0.0 | 0.00 | 0.03 | 0.00 | 92 | 1019.1 |
| 20260902012543 | 57 | 310 | 0.0 | 0.0 | 0.00 | 0.03 | 0.00 | 93 | 1019.0 |
| 20260902012035 | 57 | 310 | 0.0 | 0.0 | 0.00 | 0.03 | 0.00 | 92 | 1019.1 |
| 20260902011530 | 57 | 310 | 0.0 | 0.0 | 0.00 | 0.03 | 0.00 | 92 | 1019.2 |
| 20260902011324 | 57 | 310 | 0.0 | 0.0 | 0.00 | 0.03 | 0.00 | 92 | 1019.2 |
| 20260902010626 | 57 | 310 | 0.0 | 0.0 | 0.00 | 0.03 | 0.00 | 92 | 1019.2 |
| 20260902010107 | 57 | 310 | 0.0 | 0.0 | 0.00 | 0.03 | 0.00 | 92 | 1019.0 |
| 20260902005602 | 57 | 310 | 0.0 | 0.0 | 0.00 | 0.03 | 0.00 | 92 | 1019.0 |
| 20260902005056 | 57 | 310 | 0.0 | 0.0 | 0.00 | 0.03 | 0.00 | 92 | 1019.0 |
| 20260902004549 | 57 | 310 | 0.0 | 0.0 | 0.00 | 0.03 | 0.00 | 92 | 1019.0 |
| 20260902004044 | 57 | 310 | 0.0 | 0.0 | 0.00 | 0.03 | 0.00 | 92 | 1019.1 |
| 20260902003836 | 57 | 310 | 0.0 | 0.0 | 0.00 | 0.03 | 0.00 | 92 | 1019.1 |
| 20260902003031 | 57 | 310 | 0.0 | 0.0 | 0.00 | 0.03 | 0.00 | 92 | 1019.2 |
| 20260902002821 | 57 | 310 | 0.0 | 0.0 | 0.00 | 0.03 | 0.00 | 92 | 1019.2 |
| 20260902002314 | 57 | 310 | 0.0 | 0.0 | 0.00 | 0.03 | 0.00 | 92 | 1019.1 |
| 20260902001609 | 57 | 310 | 0.0 | 0.0 | 0.00 | 0.03 | 0.00 | 92 | 1019.2 |
| 20260902001105 | 57 | 310 | 0.0 | 0.0 | 0.00 | 0.03 | 0.00 | 92 | 1019.2 |
| 20260902000559 | 57 | 310 | 0.0 | 0.0 | 0.00 | 0.03 | 0.00 | 92 | 1019.2 |
| 20260902000054 | 57 | 310 | 0.0 | 0.0 | 0.00 | 0.03 | 0.00 | 92 | 1019.3 |
| 20260901235548 | 57 | 310 | 0.0 | 0.0 | 0.00 | 0.03 | 0.00 | 92 | 1019.3 |
| 20260901235054 | 57 | 310 | 0.0 | 0.0 | 0.00 | 0.03 | 0.00 | 93 | 1019.4 |
| 20260901234533 | 57 | 310 | 0.0 | 0.0 | 0.00 | 0.03 | 0.00 | 93 | 1019.4 |
| 20260901234025 | 57 | 310 | 0.0 | 0.0 | 0.00 | 0.03 | 0.00 | 93 | 1019.5 |
| 20260901233519 | 56 | 310 | 0.0 | 0.0 | 0.00 | 0.03 | 0.00 | 93 | 1019.6 |
| 20260901233010 | 56 | 310 | 0.0 | 0.0 | 0.00 | 0.03 | 0.00 | 92 | 1019.6 |
| 20260901232505 | 56 | 310 | 0.0 | 0.0 | 0.00 | 0.03 | 0.00 | 92 | 1019.5 |
| 20260901232000 | 56 | 310 | 0.0 | 0.0 | 0.00 | 0.03 | 0.00 | 92 | 1019.5 |
| 20260901231550 | 56 | 310 | 0.0 | 0.0 | 0.00 | 0.03 | 0.00 | 92 | 1019.5 |
| 20260901231045 | 56 | 310 | 0.0 | 0.0 | 0.00 | 0.03 | 0.00 | 92 | 1019.5 |
| 20260901230540 | 56 | 310 | 0.0 | 0.0 | 0.00 | 0.03 | 0.00 | 92 | 1019.6 |
| 20260901230226 | 56 | 310 | 0.0 | 0.0 | 0.00 | 0.03 | 0.00 | 91 | 1019.7 |
| 20260901230028 | 56 | 310 | 0.0 | 0.0 | 0.00 | 0.03 | 0.00 | 91 | 1019.7 |
| 20260901225113 | 56 | 310 | 0.0 | 0.0 | 0.00 | 0.03 | 0.00 | 91 | 1019.6 |
| 20260901224604 | 56 | 310 | 0.0 | 0.0 | 0.00 | 0.03 | 0.00 | 92 | 1019.5 |
| 20260901224058 | 56 | 310 | 0.0 | 0.0 | 0.00 | 0.03 | 0.00 | 91 | 1019.6 |
| 20260901223548 | 56 | 310 | 0.0 | 0.0 | 0.00 | 0.03 | 0.00 | 91 | 1019.5 |
| 20260901223139 | 56 | 310 | 0.0 | 0.0 | 0.00 | 0.03 | 0.00 | 91 | 1019.6 |
| 20260901222635 | 56 | 310 | 0.0 | 0.0 | 0.00 | 0.03 | 0.00 | 91 | 1019.7 |
| 20260901222130 | 57 | 310 | 0.0 | 0.0 | 0.00 | 0.03 | 0.00 | 91 | 1019.6 |
| 20260901221635 | 56 | 310 | 0.0 | 0.0 | 0.00 | 0.03 | 0.00 | 91 | 1019.6 |
| 20260901221123 | 56 | 310 | 0.0 | 0.0 | 0.00 | 0.03 | 0.00 | 91 | 1019.5 |
| 20260901220613 | 56 | 310 | 0.0 | 0.0 | 0.00 | 0.03 | 0.00 | 91 | 1019.5 |
| 20260901220103 | 56 | 310 | 0.0 | 0.0 | 0.00 | 0.03 | 0.03 | 91 | 1019.5 |
| 20260901215556 | 57 | 310 | 0.0 | 0.0 | 0.00 | 0.03 | 0.03 | 91 | 1019.7 |
| 20260901215044 | 56 | 310 | 0.0 | 0.0 | 0.00 | 0.03 | 0.03 | 91 | 1019.9 |
| 20260901214634 | 57 | 310 | 0.0 | 0.0 | 0.00 | 0.03 | 0.03 | 91 | 1019.9 |
| 20260901214125 | 57 | 310 | 0.0 | 0.0 | 0.00 | 0.03 | 0.03 | 91 | 1019.8 |
| 20260901213619 | 57 | 310 | 0.0 | 0.0 | 0.00 | 0.03 | 0.03 | 90 | 1019.9 |
| 20260901213110 | 57 | 310 | 0.0 | 0.0 | 0.00 | 0.03 | 0.03 | 90 | 1020.0 |
| 20260901212600 | 57 | 310 | 0.0 | 0.0 | 0.00 | 0.03 | 0.03 | 90 | 1020.0 |
| 20260901212050 | 57 | 310 | 0.0 | 0.0 | 0.00 | 0.03 | 0.03 | 90 | 1020.0 |
| 20260901211542 | 57 | 310 | 0.0 | 0.0 | 0.00 | 0.03 | 0.03 | 90 | 1020.0 |
| 20260901211130 | 57 | 310 | 0.0 | 0.0 | 0.00 | 0.03 | 0.03 | 89 | 1020.0 |
| 20260901210619 | 58 | 310 | 0.0 | 0.0 | 0.00 | 0.03 | 0.03 | 89 | 1019.9 |
| 20260901210115 | 58 | 310 | 0.0 | 0.0 | 0.00 | 0.03 | 0.03 | 89 | 1019.8 |
| 20260901205914 | 58 | 310 | 0.0 | 0.0 | 0.00 | 0.03 | 0.03 | 89 | 1019.8 |
| 20260901205055 | 58 | 310 | 0.0 | 0.0 | 0.00 | 0.03 | 0.03 | 88 | 1019.7 |
| 20260901204546 | 58 | 310 | 0.0 | 0.0 | 0.00 | 0.03 | 0.03 | 88 | 1019.7 |
| 20260901204132 | 58 | 310 | 0.0 | 0.0 | 0.00 | 0.03 | 0.03 | 88 | 1019.8 |
| 20260901203625 | 58 | 310 | 0.0 | 0.0 | 0.00 | 0.03 | 0.03 | 88 | 1019.8 |
| 20260901203116 | 59 | 310 | 0.0 | 0.0 | 0.00 | 0.03 | 0.03 | 87 | 1019.7 |
| 20260901202605 | 59 | 310 | 0.0 | 0.0 | 0.00 | 0.03 | 0.03 | 87 | 1019.6 |
| 20260901202056 | 59 | 310 | 0.0 | 0.0 | 0.00 | 0.03 | 0.03 | 87 | 1019.5 |
| 20260901201553 | 60 | 310 | 0.0 | 0.0 | 0.00 | 0.03 | 0.03 | 86 | 1019.5 |
| 20260901201043 | 60 | 310 | 0.0 | 0.0 | 0.00 | 0.03 | 0.03 | 86 | 1019.5 |
| 20260901200627 | 60 | 310 | 0.0 | 0.0 | 0.00 | 0.03 | 0.03 | 85 | 1019.4 |
| 20260901200121 | 60 | 310 | 0.0 | 0.0 | 0.00 | 0.03 | 0.03 | 85 | 1019.4 |
| 20260901195611 | 60 | 310 | 0.0 | 0.0 | 0.00 | 0.03 | 0.03 | 85 | 1019.4 |
| 20260901195101 | 60 | 310 | 0.0 | 0.0 | 0.00 | 0.03 | 0.03 | 84 | 1019.3 |
| 20260901194554 | 61 | 310 | 0.0 | 0.0 | 0.00 | 0.03 | 0.03 | 83 | 1019.4 |
| 20260901194549 | 61 | 310 | 0.0 | 0.0 | 0.00 | 0.03 | 0.03 | 84 | 1019.3 |
| 20260901193539 | 61 | 310 | 0.0 | 0.0 | 0.00 | 0.03 | 0.03 | 83 | 1019.5 |
| 20260901193126 | 61 | 310 | 0.0 | 0.0 | 0.00 | 0.03 | 0.03 | 83 | 1019.4 |
| 20260901192620 | 62 | 310 | 0.0 | 0.0 | 0.00 | 0.03 | 0.03 | 82 | 1019.2 |
| 20260901192109 | 62 | 310 | 0.0 | 0.0 | 0.00 | 0.03 | 0.03 | 82 | 1019.3 |
| 20260901191600 | 62 | 310 | 0.0 | 0.0 | 0.00 | 0.03 | 0.03 | 82 | 1019.2 |
| 20260901191049 | 62 | 310 | 0.0 | 0.0 | 0.00 | 0.03 | 0.03 | 81 | 1019.1 |
| 20260901190546 | 63 | 310 | 0.0 | 0.0 | 0.00 | 0.03 | 0.03 | 80 | 1019.1 |
| 20260901190541 | 63 | 310 | 0.0 | 0.0 | 0.00 | 0.03 | 0.03 | 81 | 1019.1 |
| 20260901190028 | 63 | 310 | 0.0 | 0.0 | 0.00 | 0.03 | 0.03 | 80 | 1019.1 |
| 20260901185117 | 64 | 310 | 0.0 | 0.0 | 0.00 | 0.03 | 0.03 | 78 | 1019.2 |
| 20260901185111 | 64 | 310 | 0.0 | 0.0 | 0.00 | 0.03 | 0.03 | 79 | 1019.2 |
| 20260901184055 | 65 | 310 | 0.0 | 0.0 | 0.00 | 0.03 | 0.03 | 78 | 1019.1 |
| 20260901183548 | 65 | 310 | 0.0 | 0.0 | 0.00 | 0.03 | 0.03 | 77 | 1019.1 |
| 20260901183543 | 65 | 310 | 0.0 | 0.0 | 0.00 | 0.03 | 0.03 | 77 | 1019.1 |
| 20260901182532 | 66 | 310 | 0.0 | 0.0 | 0.00 | 0.03 | 0.03 | 76 | 1019.0 |
| 20260901182525 | 65 | 310 | 0.0 | 0.0 | 0.00 | 0.03 | 0.03 | 76 | 1019.1 |
| 20260901182219 | 66 | 310 | 0.0 | 0.0 | 0.00 | 0.03 | 0.03 | 75 | 1019.1 |
| 20260901181102 | 67 | 310 | 0.0 | 0.0 | 0.00 | 0.03 | 0.03 | 74 | 1019.2 |
| 20260901181057 | 67 | 310 | 0.0 | 0.0 | 0.00 | 0.03 | 0.03 | 75 | 1019.1 |
| 20260901180550 | 67 | 310 | 0.0 | 0.0 | 0.00 | 0.03 | 0.03 | 75 | 1019.2 |
| 20260901175532 | 68 | 310 | 0.0 | 0.0 | 0.00 | 0.03 | 0.03 | 73 | 1019.2 |
| 20260901175034 | 68 | 310 | 0.0 | 0.0 | 0.00 | 0.03 | 0.03 | 72 | 1019.1 |
| 20260901174513 | 68 | 314 | 0.0 | 0.0 | 0.00 | 0.03 | 0.03 | 71 | 1019.1 |
| 20260901174006 | 68 | 299 | 0.0 | 3.0 | 0.00 | 0.03 | 0.03 | 71 | 1019.1 |
| 20260901173500 | 69 | 289 | 0.0 | 3.0 | 0.00 | 0.03 | 0.03 | 71 | 1019.1 |
| 20260901173053 | 69 | 295 | 0.0 | 0.0 | 0.00 | 0.03 | 0.03 | 70 | 1019.1 |
| 20260901173048 | 69 | 320 | 0.0 | 0.0 | 0.00 | 0.03 | 0.03 | 71 | 1019.0 |
| 20260901172543 | 69 | 287 | 0.0 | 0.0 | 0.00 | 0.03 | 0.03 | 71 | 1019.1 |
| 20260901171521 | 69 | 310 | 1.0 | 4.0 | 0.00 | 0.03 | 0.03 | 70 | 1019.1 |
| 20260901171012 | 69 | 293 | 1.0 | 4.0 | 0.00 | 0.03 | 0.03 | 69 | 1019.1 |
| 20260901170500 | 70 | 294 | 0.0 | 0.0 | 0.00 | 0.03 | 0.03 | 69 | 1019.0 |
| 20260901165954 | 70 | 301 | 0.0 | 0.0 | 0.00 | 0.03 | 0.03 | 69 | 1019.0 |
| 20260901165445 | 70 | 300 | 0.0 | 5.0 | 0.00 | 0.03 | 0.03 | 68 | 1019.0 |
| 20260901165036 | 70 | 310 | 1.0 | 5.0 | 0.00 | 0.03 | 0.03 | 67 | 1019.0 |
| 20260901164437 | 70 | 274 | 1.0 | 5.0 | 0.00 | 0.03 | 0.03 | 67 | 1018.9 |
| 20260901164015 | 70 | 216 | 0.0 | 4.0 | 0.00 | 0.03 | 0.03 | 66 | 1018.9 |
| 20260901163511 | 70 | 255 | 1.0 | 5.0 | 0.00 | 0.03 | 0.03 | 67 | 1018.9 |
| 20260901163507 | 70 | 305 | 0.0 | 0.0 | 0.00 | 0.03 | 0.03 | 67 | 1018.9 |
| 20260901162955 | 70 | 260 | 0.0 | 5.0 | 0.00 | 0.03 | 0.03 | 68 | 1018.9 |
| 20260901162151 | 70 | 233 | 1.0 | 7.0 | 0.00 | 0.03 | 0.03 | 66 | 1018.9 |
| 20260901161952 | 70 | 346 | 0.0 | 4.0 | 0.00 | 0.03 | 0.03 | 67 | 1018.9 |
| 20260901161022 | 70 | 286 | 2.0 | 7.0 | 0.00 | 0.03 | 0.03 | 65 | 1018.9 |
| 20260901160520 | 70 | 168 | 2.0 | 8.0 | 0.00 | 0.03 | 0.03 | 67 | 1018.8 |
| 20260901160516 | 71 | 10 | 2.0 | 7.0 | 0.00 | 0.03 | 0.03 | 65 | 1018.9 |
| 20260901160512 | 71 | 206 | 2.0 | 7.0 | 0.00 | 0.03 | 0.03 | 66 | 1018.8 |
| 20260901160508 | 71 | 312 | 2.0 | 6.0 | 0.00 | 0.03 | 0.03 | 65 | 1018.8 |
| 20260901154558 | 71 | 274 | 1.0 | 7.0 | 0.00 | 0.03 | 0.03 | 67 | 1018.8 |
| 20260901154456 | 70 | 293 | 2.0 | 8.0 | 0.00 | 0.03 | 0.03 | 65 | 1018.8 |
| 20260901153437 | 70 | 287 | 1.0 | 6.0 | 0.00 | 0.03 | 0.03 | 67 | 1018.8 |
| 20260901153427 | 70 | 312 | 1.0 | 5.0 | 0.00 | 0.03 | 0.03 | 67 | 1018.8 |
| 20260901152917 | 70 | 279 | 1.0 | 5.0 | 0.00 | 0.03 | 0.03 | 68 | 1018.8 |
| 20260901152019 | 71 | 316 | 1.0 | 4.0 | 0.00 | 0.03 | 0.03 | 66 | 1018.8 |
| 20260901151456 | 71 | 239 | 1.0 | 5.0 | 0.00 | 0.03 | 0.03 | 66 | 1018.8 |
| 20260901150948 | 70 | 255 | 2.0 | 7.0 | 0.00 | 0.03 | 0.03 | 67 | 1018.8 |
| 20260901150438 | 70 | 301 | 3.0 | 7.0 | 0.00 | 0.03 | 0.03 | 67 | 1018.8 |
| 20260901145937 | 71 | 337 | 3.0 | 8.0 | 0.00 | 0.03 | 0.03 | 67 | 1018.8 |
| 20260901145527 | 71 | 319 | 3.0 | 8.0 | 0.00 | 0.03 | 0.03 | 67 | 1018.7 |
| 20260901145018 | 71 | 328 | 3.0 | 9.0 | 0.00 | 0.03 | 0.03 | 66 | 1018.8 |
| 20260901144510 | 72 | 295 | 3.0 | 9.0 | 0.00 | 0.03 | 0.03 | 64 | 1018.8 |
| 20260901143949 | 71 | 217 | 2.0 | 9.0 | 0.00 | 0.03 | 0.03 | 66 | 1018.8 |
| 20260901143440 | 71 | 318 | 1.0 | 5.0 | 0.00 | 0.03 | 0.03 | 66 | 1018.8 |
| 20260901142937 | 71 | 328 | 1.0 | 5.0 | 0.00 | 0.03 | 0.03 | 67 | 1018.8 |
| 20260901142437 | 71 | 160 | 1.0 | 7.0 | 0.00 | 0.03 | 0.03 | 67 | 1018.9 |
| 20260901142025 | 71 | 323 | 2.0 | 7.0 | 0.00 | 0.03 | 0.03 | 66 | 1018.8 |
| 20260901141515 | 71 | 243 | 2.0 | 6.0 | 0.00 | 0.03 | 0.03 | 67 | 1018.8 |
| 20260901141009 | 72 | 237 | 3.0 | 8.0 | 0.00 | 0.03 | 0.03 | 67 | 1018.9 |
| 20260901140458 | 71 | 297 | 3.0 | 8.0 | 0.00 | 0.03 | 0.03 | 67 | 1018.8 |
| 20260901135951 | 71 | 272 | 2.0 | 8.0 | 0.00 | 0.03 | 0.03 | 69 | 1018.9 |
| 20260901135437 | 71 | 167 | 2.0 | 8.0 | 0.00 | 0.03 | 0.03 | 65 | 1018.9 |
| 20260901134936 | 70 | 316 | 1.0 | 8.0 | 0.00 | 0.03 | 0.03 | 67 | 1018.9 |
| 20260901134525 | 70 | 188 | 1.0 | 8.0 | 0.00 | 0.03 | 0.03 | 66 | 1018.9 |
| 20260901134016 | 70 | 23 | 2.0 | 8.0 | 0.00 | 0.03 | 0.03 | 67 | 1018.9 |
| 20260901133905 | 70 | 26 | 3.0 | 10.0 | 0.00 | 0.03 | 0.03 | 66 | 1018.9 |
| 20260901132958 | 70 | 319 | 2.0 | 10.0 | 0.00 | 0.03 | 0.03 | 65 | 1019.0 |
| 20260901132449 | 70 | 342 | 3.0 | 9.0 | 0.00 | 0.03 | 0.03 | 68 | 1018.9 |
| 20260901131942 | 70 | 295 | 5.0 | 9.0 | 0.00 | 0.03 | 0.03 | 68 | 1018.9 |
| 20260901131435 | 70 | 302 | 4.0 | 9.0 | 0.00 | 0.03 | 0.03 | 68 | 1018.9 |
| 20260901131025 | 70 | 239 | 2.0 | 6.0 | 0.00 | 0.03 | 0.03 | 69 | 1018.9 |
| 20260901130515 | 70 | 206 | 2.0 | 5.0 | 0.00 | 0.03 | 0.03 | 70 | 1018.9 |
| 20260901130008 | 69 | 300 | 2.0 | 6.0 | 0.00 | 0.03 | 0.03 | 71 | 1018.9 |
| 20260901125856 | 69 | 293 | 3.0 | 7.0 | 0.00 | 0.03 | 0.03 | 73 | 1019.0 |